User: anonymous   Login
Location: Unspecified
(0.0000°N, 0.0000°E)
Time: 08:57:42
(UTC+00:00)
Language:

STARLINK-2524 - Orbit

View from above orbital plane
View from above orbital plane
View from above satellite
View from above satellite

Ground track
Ground track

The orbit is defined by the following mean orbital elements,

1 48304U          26145.29368969 +.00000000 +00000-0 +62923-4 0 00008
2 48304  53.1595 102.6149 0001170  87.3602 272.7533 15.31706032    04
Epoch (UTC): 25 May 2026 07:02:54
Eccentricity: 0.0001170
inclination: 53.1595°
perigee height: 470 km
apogee height: 472 km
right ascension of ascending node: 102.6149°
argument of perigee: 87.3602°
revolutions per day: 15.31706032
mean anomaly at epoch: 272.7533°

The dashed part of the orbit path shows where the satellite is in the earth's shadow,  

DLR